Date,TemperatureHighF,TemperatureAvgF,TemperatureLowF,DewpointHighF,DewpointAvgF,DewpointLowF,HumidityHigh,HumidityAvg,HumidityLow,PressureMaxIn,PressureMinIn,WindSpeedMaxMPH,WindSpeedAvgMPH,GustSpeedMaxMPH,PrecipitationSumIn
2013-1-1,31,26,15,30,24,13,97,91,83,30.20,30.06,9,2,9,0.01
2013-1-2,22,12,2,14,6,-2,93,76,55,30.29,30.18,4,0,4,0.01
2013-1-3,29,19,2,25,14,-2,91,82,70,30.36,30.27,15,3,15,0.00
2013-1-4,29,23,13,25,18,10,94,83,72,30.40,30.34,13,4,13,0.00
2013-1-5,38,27,14,29,23,12,95,85,67,30.38,30.17,10,2,10,0.03
2013-1-6,35,30,17,32,26,15,92,86,81,30.39,30.05,18,5,18,0.01
2013-1-7,37,21,8,28,17,6,95,88,69,30.50,30.27,11,1,11,0.00
2013-1-8,46,33,18,34,27,16,95,81,61,30.33,30.22,11,2,11,0.00
2013-1-9,46,40,34,41,36,32,97,87,78,30.47,30.21,8,3,8,0.15
2013-1-10,43,40,37,41,38,35,96,94,92,30.29,30.06,11,5,11,0.25
2013-1-11,59,53,43,54,50,41,98,90,76,30.07,29.85,15,4,15,0.64
2013-1-12,63,56,50,62,54,47,99,93,83,30.00,29.68,22,3,22,1.08
2013-1-13,63,63,63,61,61,61,94,94,93,29.68,29.67,13,7,16,0.00
2013-1-24,24,20,11,10,6,1,84,57,37,30.65,30.46,13,3,13,0.00
2013-1-25,25,21,17,20,15,7,91,78,60,30.46,30.09,9,2,9,0.00
2013-1-26,30,20,12,21,16,9,94,84,67,30.47,30.14,10,1,10,0.05
2013-1-27,18,18,17,15,14,13,87,86,85,30.46,30.44,4,2,4,0.00
2013-1-28,51,46,39,50,45,38,99,97,93,30.15,30.00,14,4,14,0.25
2013-1-29,51,51,50,51,51,50,99,99,99,30.01,29.98,10,4,10,0.00
2013-1-30,64,47,28,60,45,24,98,92,85,29.60,29.25,25,7,25,1.18
2013-1-31,28,26,25,25,23,21,89,87,85,29.69,29.60,21,12,21,0.00
2013-2-1,16,9,4,9,4,-1,86,78,69,30.47,30.15,18,6,18,0.00
2013-2-2,27,22,14,24,19,9,92,87,79,30.35,30.03,14,4,14,0.00
2013-2-3,23,16,6,21,13,3,95,87,79,30.15,30.00,12,3,12,0.00
2013-2-4,34,26,15,31,22,12,97,88,71,30.15,29.83,14,3,14,0.01
2013-2-5,34,29,15,32,26,13,95,88,79,30.05,29.88,11,2,11,0.06
2013-2-6,37,30,22,31,26,21,95,84,63,30.30,30.05,11,2,11,0.02
2013-2-7,56,40,28,42,34,26,95,80,54,30.21,29.80,10,2,10,0.14
2013-2-8,43,33,27,42,30,25,97,89,80,30.37,29.82,18,5,18,0.12
2013-2-9,43,29,18,29,24,17,97,80,53,30.45,30.21,8,1,8,0.00
2013-2-10,53,43,30,48,36,24,96,77,57,30.21,29.73,21,5,21,0.03
2013-2-11,50,40,31,48,34,28,96,79,67,30.06,29.72,28,7,28,0.00
2013-2-12,32,31,30,28,28,27,89,88,87,30.09,30.06,7,4,7,0.00
2013-2-13,42,32,27,31,28,25,95,85,62,29.94,29.81,11,3,11,0.00
2013-2-14,51,39,29,40,34,26,94,83,63,30.02,29.82,20,5,20,0.00
2013-2-15,37,29,19,33,26,16,95,87,74,30.19,29.99,17,3,17,0.00
2013-2-16,28,21,16,19,15,10,93,77,60,30.17,30.11,16,4,16,0.00
2013-2-17,32,21,10,16,11,7,90,68,38,30.29,30.16,9,2,9,0.00
2013-2-18,59,44,24,43,33,13,95,64,48,30.20,29.64,29,7,29,0.21
2013-2-19,44,27,22,43,22,14,97,81,72,30.16,29.61,21,10,21,0.09
2013-2-20,27,20,13,17,13,8,84,74,59,30.36,30.15,14,5,16,0.00
2013-2-21,33,24,15,27,20,12,92,82,67,30.40,30.05,12,3,12,0.00
2013-2-22,35,33,29,34,31,27,97,93,87,30.07,29.88,13,3,13,0.11
2013-2-23,38,30,23,30,25,20,90,82,66,30.03,29.94,11,3,11,0.00
2013-2-24,41,29,18,30,24,17,95,81,59,30.17,29.99,12,2,12,0.00
2013-2-25,46,34,23,32,26,21,91,75,53,30.19,29.88,12,3,12,0.00
2013-2-26,44,38,33,43,36,27,97,90,71,29.89,29.38,14,4,14,0.91
2013-2-27,40,34,31,39,33,29,97,94,88,29.72,29.49,18,7,18,0.04
2013-2-28,37,33,31,34,31,29,97,94,88,29.99,29.70,13,5,13,0.03
2013-3-1,34,32,28,33,29,24,96,92,84,30.09,29.96,15,4,15,0.04
2013-3-2,29,27,25,24,22,20,86,81,74,30.13,30.07,14,5,14,0.00
2013-3-3,32,27,17,25,21,15,93,80,67,30.14,30.09,11,3,11,0.00
2013-3-4,42,29,16,30,23,14,95,78,50,30.18,29.99,11,1,11,0.01
2013-3-5,36,33,27,34,31,27,97,91,78,30.00,29.65,11,3,11,0.15
2013-3-6,27,27,27,27,26,26,97,97,97,29.79,29.74,8,4,8,0.00
2013-3-7,37,31,28,31,28,26,94,86,72,30.42,30.28,8,2,8,0.17
2013-3-8,44,33,22,32,26,21,94,78,55,30.51,30.38,6,1,6,0.00
2013-3-9,54,43,30,40,33,26,87,69,50,30.39,29.99,16,3,16,0.00
2013-3-10,66,57,50,43,38,36,62,51,35,29.99,29.75,14,5,20,0.00
2013-3-11,59,47,34,51,43,31,97,87,48,29.86,29.59,21,7,21,0.23
2013-3-12,44,35,31,33,30,27,94,81,58,30.06,29.86,20,6,20,0.00
2013-3-13,32,27,22,29,23,18,91,84,74,30.36,30.04,17,6,17,0.00
2013-3-14,23,22,21,20,19,18,89,88,88,30.37,30.36,2,0,2,0.00
2013-3-15,52,39,27,41,34,26,97,85,64,30.20,29.76,10,2,10,0.00
2013-3-16,51,43,35,48,40,33,95,89,80,30.03,29.61,17,4,17,0.07
2013-3-17,39,34,30,33,29,26,94,84,74,30.16,29.97,15,4,15,0.00
2013-3-18,44,37,32,43,36,30,98,95,90,29.97,29.60,16,4,16,0.82
2013-3-19,41,32,24,35,24,19,94,71,44,30.14,29.84,25,8,25,0.00
2013-3-20,33,27,22,23,18,12,89,70,51,30.13,30.03,18,5,18,0.00
2013-3-21,34,24,16,19,14,11,89,68,47,30.08,30.00,14,4,14,0.00
2013-3-22,45,29,15,25,19,13,95,69,37,30.11,30.02,16,1,16,0.00
2013-3-23,50,38,30,31,27,24,87,66,40,30.09,29.89,12,2,12,0.00
2013-3-24,37,33,28,31,28,25,96,84,69,29.90,29.44,18,4,18,0.00
2013-3-25,33,30,27,31,28,25,96,93,87,30.01,29.47,15,6,15,0.19
2013-3-26,38,33,29,31,28,26,95,82,66,30.28,30.01,14,4,14,0.03
2013-3-27,31,30,30,28,27,26,90,87,85,30.28,30.27,5,2,5,0.00
2013-3-28,49,35,20,32,26,18,96,72,44,30.40,30.31,12,1,12,0.00
2013-3-29,56,41,26,39,31,23,94,71,42,30.35,30.22,9,1,9,0.00
2013-3-30,60,45,27,38,33,25,95,68,39,30.25,29.93,11,1,11,0.00
2013-3-31,61,49,42,47,42,36,94,77,48,29.93,29.76,18,4,18,0.05
2013-4-1,47,39,31,43,28,20,88,64,40,30.16,29.82,16,5,16,0.00
2013-4-2,45,33,20,24,20,16,90,62,34,30.31,30.15,14,2,14,0.00
2013-4-3,50,34,18,24,20,15,89,60,31,30.45,30.29,15,2,15,0.00
2013-4-4,60,41,28,29,24,20,85,54,23,30.35,30.00,7,1,7,0.00
2013-4-5,58,32,29,35,26,24,83,77,42,30.10,30.00,11,0,11,0.00
2013-4-6,68,52,33,40,34,27,79,52,34,30.17,29.84,20,4,20,0.00
2013-4-7,74,63,50,53,46,39,82,56,37,29.93,29.79,23,5,23,0.03
2013-4-8,72,62,55,59,54,50,92,76,62,29.95,29.82,19,4,19,0.00
2013-4-9,80,67,50,64,56,48,95,71,44,30.00,29.85,24,4,24,0.00
2013-4-10,80,70,60,70,63,58,92,78,62,29.90,29.71,19,5,19,0.10
2013-4-11,66,61,52,63,59,51,98,94,87,29.75,29.48,17,3,17,0.95
2013-4-12,52,42,37,51,37,32,97,82,70,29.93,29.54,16,6,16,0.10
2013-4-13,54,45,39,43,37,33,89,74,57,30.02,29.92,19,5,19,0.00
2013-4-14,72,55,36,51,42,33,91,66,37,30.04,29.83,14,2,14,0.00
2013-4-15,73,62,52,58,52,46,87,72,57,29.95,29.85,14,4,14,0.00
2013-4-16,69,58,51,64,55,50,97,88,77,30.16,29.87,15,4,15,0.91
2013-4-17,75,60,49,68,58,48,97,90,79,30.19,29.89,15,3,15,0.76
2013-4-18,79,68,61,67,62,59,95,81,59,29.89,29.52,29,6,29,0.00
2013-4-19,61,42,37,59,37,32,96,85,73,29.98,29.49,22,8,22,0.65
2013-4-20,49,39,31,36,31,27,93,74,49,30.42,29.98,14,4,14,0.00
2013-4-21,58,42,28,40,30,24,87,66,38,30.55,30.38,9,2,9,0.00
2013-4-22,71,52,31,45,36,28,92,58,31,30.37,30.10,11,1,11,0.00
2013-4-23,67,59,48,58,49,40,91,71,59,30.11,29.75,17,3,17,0.14
2013-4-24,62,44,33,56,41,31,97,88,73,30.22,29.75,18,4,18,1.09
2013-4-25,57,43,32,45,35,30,94,75,43,30.39,30.22,19,4,19,0.00
2013-4-26,64,48,31,48,36,29,93,68,36,30.46,30.32,11,1,11,0.00
2013-4-27,64,53,39,52,44,35,90,75,44,30.34,30.00,14,1,14,0.00
2013-4-28,63,57,53,60,55,52,97,93,84,30.00,29.82,11,2,11,0.41
2013-4-29,70,59,55,58,55,51,98,86,60,29.99,29.88,10,2,10,0.01
2013-4-30,82,65,48,64,55,47,96,73,45,30.01,29.91,14,2,14,0.00
2013-5-1,86,70,53,64,57,49,94,67,37,30.12,30.01,9,1,9,0.00
2013-5-4,64,58,54,53,51,49,94,79,60,29.98,29.92,9,2,9,0.02
2013-5-5,59,54,52,54,52,49,97,90,73,29.98,29.90,11,2,11,0.26
2013-5-6,67,58,51,60,55,49,96,88,72,29.95,29.87,7,2,9,0.30
2013-5-7,73,62,53,60,56,52,97,82,59,29.97,29.90,12,2,12,0.01
2013-5-8,78,64,51,62,57,50,99,81,52,30.01,29.92,11,1,11,0.24
2013-5-9,80,64,52,64,57,52,98,82,41,29.99,29.88,25,1,25,0.64
2013-5-10,67,62,51,64,60,49,98,94,88,29.89,29.77,13,2,13,0.25
2013-5-11,51,50,49,49,48,47,93,93,92,29.90,29.87,8,3,8,0.00
2013-5-12,56,46,35,40,36,31,96,69,42,30.12,30.02,17,3,17,0.00
2013-5-13,63,49,32,42,36,31,97,65,32,30.20,30.11,16,2,16,0.00
2013-5-14,84,65,48,63,50,36,72,58,44,30.12,29.78,17,4,17,0.00
2013-5-15,87,76,63,65,61,58,85,62,43,29.84,29.75,17,6,17,0.00
2013-5-16,81,72,64,70,64,60,94,77,50,29.93,29.79,17,3,17,0.06
2013-5-17,85,69,60,69,64,60,98,86,49,30.01,29.93,17,1,17,0.08
2013-5-18,82,70,62,69,65,61,98,85,61,30.02,29.92,8,1,8,0.02